User: anonymous   Login
Location: Cherry Springs State Park
(41.6616°N, 77.8240°W)
Time: 08:44:36
(UTC-04:00)
Language:

Cosmos 1437 - Orbit

View from above orbital plane
View from above orbital plane
View from above satellite
View from above satellite

Ground track
Ground track

The orbit data is extracted from the following two-line orbital elements,

1 13770U 83003A   17203.84227067 +.00004181 +00000-0 +69287-4 0  9991
2 13770 081.1588 104.7007 0007476 125.3582 234.8365 15.51834860892056
Epoch (UTC): 22 July 2017 20:12:52
Eccentricity: 0.0007476
inclination: 81.1588°
perigee height: 406 km
apogee height: 416 km
right ascension of ascending node: 104.7007°
argument of perigee: 125.3582°
revolutions per day: 15.51834860
mean anomaly at epoch: 234.8365°
orbit number at epoch: 89205

The dashed part of the orbit path shows where the satellite is in the earth's shadow,  

DLR